Weather Roundup
Issued by NWS

Home | Current Version | Previous Version | Graphics & Text | Print | Product List | Glossary Off
Versions: 1 2 3 4 5 6 7 8 9 10 11 12 13 14 15 16 17 18 19 20 21 22 23 24 25 26 27 28 29 30 31 32 33 34 35 36 37 38 39 40 41 42 43 44 45 46 47 48 49 50

769
NZUS93 KARX 302210
HRRWXR

CURRENT HOURLY OBSERVATIONS ACROSS
MUCH OF THE UPPER MISSISSIPPI VALLEY
NATIONAL WEATHER SERVICE LA CROSSE WI
500 PM CDT SUN APR 30 2017


...SOUTHEAST MINNESOTA...


CITY           SKY/WX    TMP DP  RH WIND       PRES   REMARKS
ROCHESTER      CLOUDY    43  37  79 NE23G30   29.76F
ROCHESTER/MAYO CLOUDY    45  37  73 NE15G25   29.77F
WINONA         CLOUDY    46  37  71 E17       29.80F
AUSTIN         CLOUDY    45  36  70 E16G26    29.73F
ALBERT LEA     CLOUDY    43  36  75 NE23G29   29.70F
DODGE CENTER   CLOUDY    45  36  70 NE25G32   29.74F
PRESTON        CLOUDY    41  36  82 E20G25    29.76S
OWATONNA       CLOUDY    46  36  66 NE22      29.76F
FARIBAULT      CLOUDY    45  36  70 NE15G24   29.78F
$$

...ELSEWHERE IN MINNESOTA...


CITY           SKY/WX    TMP DP  RH WIND       PRES   REMARKS
MINNEAPOLIS    CLOUDY    48  33  56 NE20G30   29.81F
INTNL FALLS    MOSUNNY   56  22  26 E14G20    29.97F
DULUTH         CLOUDY    44  25  47 E24G33    29.97F
RED WING       CLOUDY    50  34  53 E13G18    29.78F
REDWOOD FALLS  CLOUDY    43  34  70 NE17G25   29.80F
MANKATO        LGT RAIN  45  36  70 NE18G25   29.76F
WORTHINGTON    LGT RAIN  38  37  97 NE29G40   29.67F WCI  26
FAIRMONT       CLOUDY    42  37  82 NE17      29.71F
$$

...SOUTHWEST WISCONSIN...


CITY           SKY/WX    TMP DP  RH WIND       PRES   REMARKS
LA CROSSE      CLOUDY    46  39  76 NE12G21   29.80F
PRAIRIE DU CHI DRIZZLE   44  38  79 NE10G16   29.73F
BOSCOBEL       CLOUDY    45  39  79 NE12G22   29.75F
LONE ROCK      CLOUDY    44  38  79 E18G28    29.77F
PLATTEVILLE    CLOUDY    44  43  96 NE17G25   29.73S
FORT MC COY    CLOUDY    43  38  83 NE15G21   29.82F
CAMP DOUGLAS   CLOUDY    42  37  82 NE16G23   29.82F
MAUSTON-NEW LI CLOUDY    42  37  84 E10G17    29.82F
VIROQUA        CLOUDY    42  38  87 E18G30    29.77F
WIS DELLS      CLOUDY    40  37  89 NE12G21   29.81S WCI  34
$$

...ELSEWHERE IN WISCONSIN...


CITY           SKY/WX    TMP DP  RH WIND       PRES   REMARKS
MILWAUKEE      CLOUDY    42  41  96 NE16      29.82F
MADISON        DRIZZLE   43  40  89 NE16G25   29.78F FOG
GREEN BAY      CLOUDY    40  38  93 NE18G28   29.91F WCI  31
EAU CLAIRE     CLOUDY    51  35  54 E18G24    29.82F
BLACK RVR FLS  CLOUDY    46  36  68 E12G24    29.82F
MEDFORD        CLOUDY    46  34  63 E18       29.86F
WAUSAU         CLOUDY    42  36  79 NE12G23   29.89F
WIS RAPIDS     CLOUDY    41  37  86 E15G22    29.88F
MARSHFIELD     CLOUDY    43  36  76 E18       29.85F
RICE LAKE      CLOUDY    45  34  64 N18       29.88F
$$

...NORTHEAST IOWA...


CITY           SKY/WX    TMP DP  RH WIND       PRES   REMARKS
WATERLOO       CLOUDY    44  41  89 E24G33    29.61F
DUBUQUE        CLOUDY    44  42  93 E21G28    29.69F
DECORAH        CLOUDY    43  39  87 E16       29.71F
MASON CITY     LGT RAIN  42  38  85 NE26G35   29.66F
CHARLES CITY   CLOUDY    43  41  93 NE28G35   29.66F
OELWEIN        LGT RAIN  43  43 100 NE26G37   29.59F
$$

...ELSEWHERE IN IOWA...


CITY           SKY/WX    TMP DP  RH WIND       PRES   REMARKS
DES MOINES     LGT RAIN  46  44  93 E16G26    29.50F FOG
IOWA CITY      CLOUDY    48  45  89 E18G31    29.59F
FORT DODGE     CLOUDY    43  36  75 NE20G30   29.59F
MARSHALLTOWN   CLOUDY    44  43  96 NE22      29.56F
CEDAR RAPIDS   CLOUDY    46  46 100 E23G32    29.58F
$$

...NORTHERN ILLINOIS...


CITY           SKY/WX    TMP DP  RH WIND       PRES   REMARKS
CHICAGO-OHARE  LGT RAIN  44  42  93 NE15      29.76F VSB 3/4
CHICAGO-MIDWAY DRIZZLE   45  44  97 N15G23    29.76F FOG
MOLINE         CLOUDY    49  46  90 E17       29.62F
ROCKFORD       CLOUDY    47  42  83 E17       29.74F
PEORIA         LGT RAIN  52  52 100 E18       29.61F FOG
$$

NOTE: "FAIR" INDICATES FEW OR NO CLOUDS BELOW 12,000 FEET WITH NO
SIGNIFICANT WEATHER AND/OR OBSTRUCTIONS TO VISIBILITY. WIND
SPEEDS ARE IN MILES-PER-HOUR.




USA.gov is the U.S. government's official web portal to all federal, state and local government web resources and services.